This is the latest recevied weather packets stored in our database for station/object AF9W-5. If no packets are shown the sender has not sent any weather packets the latest 10 day(s).
| Time | Temp. | Humidity | Pressure | Rain* | Wind** | Luminosity | Snow |
|---|---|---|---|---|---|---|---|
| 1776961580 | 21.67° C | 23% | 1014.2 hPa | 0 mm | - | 600 W/m² | - |
| 1776961279 | 21.67° C | 23% | 1014.1 hPa | 0 mm | - | 567 W/m² | - |
| 1776960974 | 21.11° C | 24% | 1014.2 hPa | 0 mm | - | 596 W/m² | - |
| 1776960670 | 21.11° C | 24% | 1014 hPa | 0 mm | - | 570 W/m² | - |
| 1776960365 | 21.11° C | 24% | 1014.1 hPa | 0 mm | - | 540 W/m² | - |
| 1776960064 | 21.11° C | 24% | 1014.1 hPa | 0 mm | - | 499 W/m² | - |
| 1776959760 | 21.11° C | 24% | 1014.2 hPa | 0 mm | - | 499 W/m² | - |
| 1776959458 | 20.56° C | 24% | 1014.1 hPa | 0 mm | - | 480 W/m² | - |
| 1776959153 | 21.11° C | 24% | 1014.2 hPa | 0 mm | - | 458 W/m² | - |
| 1776958547 | 20.56° C | 27% | 1014.2 hPa | 0 mm | - | 304 W/m² | - |
| 1776958246 | 20.56° C | 27% | 1014.3 hPa | 0 mm | - | 304 W/m² | - |
| 1776957941 | 20.56° C | 28% | 1014 hPa | 0 mm | - | 394 W/m² | - |
| 1776957638 | 20° C | 27% | 1014.2 hPa | 0 mm | - | 375 W/m² | - |
| 1776957333 | 19.44° C | 28% | 1014.2 hPa | 0 mm | - | 76 W/m² | - |
| 1776957033 | 19.44° C | 29% | 1014.1 hPa | 0 mm | - | 329 W/m² | - |
| 1776956732 | 19.44° C | 29% | 1014.3 hPa | 0 mm | - | 324 W/m² | - |
| 1776956432 | 19.44° C | 30% | 1014 hPa | 0 mm | - | 307 W/m² | - |
| 1776956127 | 18.89° C | 31% | 1014.1 hPa | 0 mm | - | 66 W/m² | - |
| 1776955823 | 18.89° C | 31% | 1014.1 hPa | 0 mm | - | 271 W/m² | - |
| 1776955520 | 18.89° C | 31% | 1014.2 hPa | 0 mm | - | 251 W/m² | - |
| 1776955215 | 18.89° C | 30% | 1014.3 hPa | 0 mm | - | 252 W/m² | - |
| 1776954911 | 18.89° C | 28% | 1014.1 hPa | 0 mm | - | 224 W/m² | - |
| 1776954608 | 18.33° C | 28% | 1014.2 hPa | 0 mm | - | 209 W/m² | - |
| 1776954303 | 18.33° C | 29% | 1014.1 hPa | 0 mm | - | 191 W/m² | - |
| 1776954002 | 18.33° C | 30% | 1014.1 hPa | 0 mm | - | 175 W/m² | - |
* Rain latest hour (hover to see other rain measurements)
** Current wind speed in m/s (hover to see current wind gust speed)